Address 0xc27a11f6d8f16153620f934a10a0322d7c7051ac 1

 
 
Txn Hash Method
Block
From
To
Value [Txn Fee]
0x0e419d9bfd4bacee62810451ffa11c60dc164de84f381eb9b1d73c12f8689f6fTransfer112258442021-09-25 15:32:471 hr 1 min ago0xc27a11f6d8f16153620f934a10a0322d7c7051acOUT0x7089079e778fe86f1b5229a3fb82388a781543500.055674324541661 BNB0.000105
0x50b53588eb4b2f5e7f577376a32009a325db3f120bb3611c15bfd87dba08f0adTransfer112252402021-09-25 15:02:341 hr 31 mins agoBinance: Hot Wallet 16 IN 0xc27a11f6d8f16153620f934a10a0322d7c7051ac0.01744332 BNB0.00021
0x5c64d09d26f0bc24bd2238b1ae8e56be1b1b441f69444af68b99afcda6fb53a5Transfer112252302021-09-25 15:02:041 hr 31 mins ago0xc27a11f6d8f16153620f934a10a0322d7c7051acOUT0x04fe7a60cde5ce6cd1b00ee44e8dc2709305fa0c0.026189419637482 BNB0.000105
0x03e00afad17438f522f3936ccec87ce85bf7822b035fd253a5b3e83c32df6634Transfer112246572021-09-25 14:33:252 hrs ago0xbce0fc707f093fba34eb324240cc730cd9ab251e IN 0xc27a11f6d8f16153620f934a10a0322d7c7051ac0.0051 BNB0.000105
0x11cfd5cc87583e7906304f53831bbbf7f194e0e9d2b6a36d1e58407a5dfdb8a8Transfer112245932021-09-25 14:30:132 hrs 3 mins ago0xc27a11f6d8f16153620f934a10a0322d7c7051acOUT0xbce0fc707f093fba34eb324240cc730cd9ab251e0.004025428250731 BNB0.000105
0x763de1eb3f0b872f5ad9e75dcc6319aad0ff76cf2fa6ebb44aa3e1bbb9c9efd2Transfer112244452021-09-25 14:22:492 hrs 11 mins ago0xc27a11f6d8f16153620f934a10a0322d7c7051acOUT0x25fa9c6d6bc937d415ad2bc13f0ca2c01f6e10370.002001966830049 BNB0.000105
0xf2b3951390a33695459e1cacd964f749e06b6d40757c072b5f46ee62037503a1Transfer112235162021-09-25 13:34:242 hrs 59 mins ago0xc27a11f6d8f16153620f934a10a0322d7c7051acOUT0xc0b6abe9f94632112e32b1b723e4dfb5a30138410.185412151987216 BNB0.000105
0x7e12742d13988154d1be90e018382f50f24ee704989bcaa15f838a4bdcd981bbTransfer112235082021-09-25 13:34:002 hrs 59 mins agoBinance: Hot Wallet 8 IN 0xc27a11f6d8f16153620f934a10a0322d7c7051ac0.6202 BNB0.00021
0x9900c8b984cc4335fd4489bea668ce04b0ba4271d2a7c5aa0465fb3a9d3e7157Transfer112235052021-09-25 13:33:513 hrs ago0xc27a11f6d8f16153620f934a10a0322d7c7051acOUT0x3a541ccdbd0c2ec39014beb98b80c0eb7059ad8d0.092595517086067 BNB0.000105
0x85bb00add8280994f60776cd5b9cb54be8aa005794892fbaf02614b319f5733dTransfer112233702021-09-25 13:27:063 hrs 6 mins ago0xc27a11f6d8f16153620f934a10a0322d7c7051acOUT0xaae8ca13e9fc4e1f343968a218703b26986ab92f0.017900080433269 BNB0.000105
0x10bb287efd37ae97a36bc1e378f3ca5c28e9b86881987659fc4f91b84228580dTransfer112230972021-09-25 13:13:273 hrs 20 mins ago0xc27a11f6d8f16153620f934a10a0322d7c7051acOUT0xfec6cf8e88a9de17858968810b8aa902fe9fae960.036796242065905 BNB0.000105
0x3e194f829f5f38e92e8bb9762db58f06db8ed0d0bb72ef8178b12b2a7c964fc4Transfer112228012021-09-25 12:58:383 hrs 35 mins ago0xc27a11f6d8f16153620f934a10a0322d7c7051acOUT0xaed7da9f3ce68a028f289effaf97db05a24f09430.054860716435629 BNB0.000105
0x8d100fc6f60c39b7e6474e07c92e02800d94f0e0f16bd2e01f8f6dd2a47fd56dTransfer112227752021-09-25 12:57:203 hrs 36 mins ago0xc27a11f6d8f16153620f934a10a0322d7c7051acOUT0x5886739a80b06b250b6f7bdbb4220cc738caedb50.054902066273389 BNB0.000105
0x374a73abb189aadf544acc6057dc8c75bd62621832c6c5c0663e0d531da87dd0Transfer112227382021-09-25 12:55:293 hrs 38 mins ago0xc27a11f6d8f16153620f934a10a0322d7c7051acOUT0x42b9dcc6df86adc161d215d07f678b9eef92bfb30.009967899929096 BNB0.000105
0x7ee9820910c699b5c9cbba531074a5328cf1fe5c88e4d9064e1fcc127acbb7e6Transfer112218452021-09-25 12:10:484 hrs 23 mins ago0xc27a11f6d8f16153620f934a10a0322d7c7051acOUT0x54e199f71172e380d8a3e15787e97cfe58c3b2d80.091560517536321 BNB0.000105
0x48d1e2a27f390a7afff24440f9bb39dd597e3e5446a45c6ff41b0051b13090f0Transfer112217542021-09-25 12:06:154 hrs 27 mins ago0xc27a11f6d8f16153620f934a10a0322d7c7051acOUT0xabf9473cad1d676fed0d34294a33325e3cbff9dd0.017897329210467 BNB0.000105
0x93188848e4be09678bf3330cfa559cc60d25c96e1dc044df68766b189e3ed0feTransfer112216422021-09-25 12:00:394 hrs 33 mins ago0xc27a11f6d8f16153620f934a10a0322d7c7051acOUT0xa028c6a638815ea4b645a86eef99057d80d8c43c0.1 BNB0.000105
0x52d83459887a531c3fb5f1bd727f3f174558a1b3882235ad64ba8a68b802c404Transfer112215932021-09-25 11:58:124 hrs 35 mins ago0xc27a11f6d8f16153620f934a10a0322d7c7051acOUT0x539e4f5de7b8b5d664b91a020d60395714bfc12c0.003007746430676 BNB0.000105
0xb7e5f7df9cff3ccea01b99943006e0f77e05f0dda149876a007409f5a6144c60Transfer112212802021-09-25 11:42:314 hrs 51 mins ago0xc27a11f6d8f16153620f934a10a0322d7c7051acOUT0xe0295a28db105c6a8b6638c1d149dbd36129ed7a0.019824443855402 BNB0.000105
0x3be466d708dcb9c986719c120d8a6262bed9a575d07044804709d2e369bc2e1fTransfer112207162021-09-25 11:14:165 hrs 19 mins ago0xc27a11f6d8f16153620f934a10a0322d7c7051acOUT0x1a38e40a3ec7789df4d28c0b9d440015a9e056510.02633033673874 BNB0.000105
0x8ab814c0a5d68fd71fa6d15fe811446769f71dc52c7751d609f29c1ebe141593Transfer112196202021-09-25 10:19:286 hrs 14 mins ago0xc27a11f6d8f16153620f934a10a0322d7c7051acOUT0x9074edd745974b806420d87ab30e03ba2a1b8e660.008270731887046 BNB0.000105
0xb11dc85e66b3ee69a3ef447d523876ec3c6895bee8515f99dae340e232556149Transfer112193852021-09-25 10:07:436 hrs 26 mins ago0xc27a11f6d8f16153620f934a10a0322d7c7051acOUT0x263f56bf61b6a96c76bed2d4148f536857ed6b2a0.004941703583301 BNB0.000105
0x65c0db57150caefddbb718f07504218dc2fd26d3958dcdc4769b2dc182340c9dTransfer112189132021-09-25 9:44:076 hrs 49 mins ago0xc27a11f6d8f16153620f934a10a0322d7c7051acOUT0x3646d2b3e765d9269d7f496a14fa70e542492e580.01774236720059 BNB0.000105
0x91c4259b3ba9ebc18dc2a3aef41fa2eff6c571c68291a2555b598522c7489e68Transfer112184362021-09-25 9:20:167 hrs 13 mins ago0xf5cd336c61b3f2b351d235ecbb22322735930abe IN 0xc27a11f6d8f16153620f934a10a0322d7c7051ac0.012 BNB0.000105
0x3df1b93163fbd6b8ec4627c1aa20bb5422b41b5195a4ace8e1b50f00d529272bTransfer112170632021-09-25 8:11:308 hrs 22 mins ago0xb63d1d2a71c9a88666945393ad2741a7aeec43b0 IN 0xc27a11f6d8f16153620f934a10a0322d7c7051ac0.0418 BNB0.000105
[ Download CSV Export 
Latest 7 internal transactions
Parent Txn Hash Block From To Value
0x1def45735e80090f63a63ecc401fdf8da3f0e0c7c38ea234eb298b3970ac7a1d103961132021-08-27 14:34:2629 days 1 hr ago BSC: Token Hub0xc27a11f6d8f16153620f934a10a0322d7c7051ac0.27758001 BNB
0x152a0953ed7b12b05c5435bc8968bb21d0d9f6d0426eba5c3459d42feb43730799900962021-08-13 9:45:2743 days 6 hrs ago PancakeSwap: Router v20xc27a11f6d8f16153620f934a10a0322d7c7051ac0.508900230871975587 BNB
0xbac41ff81dbab84eefa517307a4f8b5ba45bb5b0289c8f9d065d8a78965ba2d399893532021-08-13 9:06:1643 days 7 hrs ago PancakeSwap: Router v20xc27a11f6d8f16153620f934a10a0322d7c7051ac0.347710649748652331 BNB
0x2ef2b771e8b89c4e54446941a79735f91981458902dcdb37af02ca53a1ec2ba099139792021-08-10 16:42:1445 days 23 hrs ago BSC: Token Hub0xc27a11f6d8f16153620f934a10a0322d7c7051ac0.43124031 BNB
0x20b358687bc4205d0ba1d88f164e11bd0034429ef6a4b65617db84f995d0ca8281677302021-06-10 6:00:18107 days 10 hrs ago PancakeSwap: Router v20xc27a11f6d8f16153620f934a10a0322d7c7051ac0.021089982437690989 BNB
0x38f13c8c30cd1fba8b48280c4867ef1a85eb76953b838892f0f2ad0a3613e31673314632021-05-11 22:14:51136 days 18 hrs ago BSC: Token Hub0xc27a11f6d8f16153620f934a10a0322d7c7051ac0.34737571 BNB
0xc7f079de3f85de649144de72f7c974c175ccffd05ecac8de9f72b10f4360a64573215352021-05-11 13:18:31137 days 3 hrs ago BSC: Token Hub0xc27a11f6d8f16153620f934a10a0322d7c7051ac0.223 BNB
[ Download CSV Export 
Loading

Contract Name:
0 BNB

Compiler Version
0

Optimization Enabled:
0 BNB

Other Settings:
-NA-
Block Transaction Gas Used Reward
Age Block Fee Address BC Fee Address Voting Power Jailed Incoming
Block Uncle Number Difficulty Gas Used Reward
Loading
Loading
Make sure to use the "Vote Down" button for any spammy posts, and the "Vote Up" for interesting conversations.